www.pogodaiklimat.ru

Погода и климат >> Архив погоды >> Малайзия >> Kuantan


ПОГОДА в Kuantan

  • Прогноз погоды в Kuantan
  • Монитор погоды в Kuantan
  • Климат города

АРХИВ ПОГОДЫ в Kuantan

Время (UTC), дата Ветер
(напр.,м/с)
 
Видим.   Явления Облачность Т
(С)
Тd
(С)
f
(%)
Тe
(С)
Тes
(С)
Комфортность P
(гПа)
Po
(гПа)
Тmin
(С)
Tmax
(С)
R
(мм)
R24
(мм)
S
(см)
12 13.07 ЮВ 2 12 км мгла 9/3 720 м
[Sc Ac trans Ci sp]
+28.8 +26.7 88 +45 +45 опасность
перегрева
1006.7 1004.9 +32.0
15 13.07 ЮЗ 2 9000 м мгла 9/3 720 м
[Sc Ac trans Ci sp]
+27.3 +26.2 94 +41 +41 опасность
перегрева
1009.0 1007.2
18 13.07 Ю 2 6000 м дымка 9/4 180 м
[Sc Ac trans Ci sp]
+26.5 +25.7 95 +39 +39 очень
душно
1008.0 1006.2
21 13.07 Ю 1 4000 м дымка 9/3 90 м
[Sc Ac trans Ci sp]
+25.4 +24.8 96 +36 +36 очень
душно
1007.4 1005.6
00 14.07 Ю 2 6000 м мгла 9/3 210 м
[Sc Ac trans Ci sp]
+25.8 +24.6 93 +36 +37 очень
душно
1008.3 1006.5 +25.2
03 14.07 ЮЗ 5 9000 м мгла 9/3 570 м
[Cu med, cong Ac trans Ci sp]
+30.4 +25.1 73 +44 +47 опасность
перегрева
1009.1 1007.3
06 14.07 ЮЗ 6 16 км мгла 9/4 570 м
[Cu med, cong Ac trans Ci sp]
+32.5 +24.2 62 +45 +47 опасность
перегрева
1007.5 1005.7
09 14.07 Ю 3 16 км мгла 9/4 570 м
[Cu med, cong Ac trans Ci sp]
+31.9 +25.5 69 +46 +48 опасность
перегрева
1005.7 1003.9
12 14.07 Ю 2 12 км мгла 9/3 750 м
[Sc Ac trans Ci sp]
+29.2 +25.5 80 +43 +43 опасность
перегрева
1007.0 1005.2 +33.8
15 14.07 Ю 2 11 км мгла 9/3 750 м
[Sc Ac lent Ci sp]
+27.0 +24.9 88 +39 +39 очень
душно
1009.4 1007.6
18 14.07 Ю 2 12 км мгла 9/3 750 м
[Sc Ac trans Ci sp]
+25.9 +24.3 91 +36 +36 очень
душно
1009.0 1007.2
21 14.07 Ю 2 9000 м мгла 9/3 750 м
[Sc Ac trans Ci sp]
+25.6 +23.8 90 +35 +35 очень
душно
1008.2 1006.4
00 15.07 штиль 0 10 км мгла 9/3 180 м
[Cu hum Ac trans Ci sp]
+25.3 +24.1 93 +35 +36 очень
душно
1008.9 1007.1 +24.8
03 15.07 Ю 5 12 км мгла 9/3 660 м
[Cu hum Ac trans Ci sp]
+30.4 +24.6 71 +43 +46 опасность
перегрева
1009.1 1007.3
06 15.07 Ю 5 15 км мгла 9/3 600 м
[Cu med, cong Ac trans Ci sp]
+33.1 +24.4 60 +45 +49 опасность
перегрева
1007.1 1005.3
09 15.07 Ю 4 15 км мгла 9/3 600 м
[Cu hum Ac trans Ci sp]
+33.5 +24.8 60 +47 +48 опасность
перегрева
1005.7 1003.9
12 15.07 Ю 2 12 км мгла 9/1 720 м
[Sc Ac trans Ci sp]
+29.3 +24.2 74 +41 +41 опасность
перегрева
1007.1 1005.3 +34.2
15 15.07 Ю 3 12 км мгла 9/1 720 м
[Sc Ac trans Ci sp]
+27.1 +23.0 78 +36 +36 очень
душно
1009.1 1007.3
18 15.07 Ю 2 12 км мгла 9/1 720 м
[Sc Ac trans Ci sp]
+26.4 +23.3 83 +36 +36 очень
душно
1008.9 1007.1
21 15.07 Ю 2 11 км мгла 9/1 720 м
[Sc Ac trans Ci fib]
+26.1 +23.6 86 +35 +35 очень
душно
1007.9 1006.1
00 16.07 ЮВ 2 10 км мгла 9/1 660 м
[Cu hum Ac cast Ci sp]
+25.2 +23.3 89 +34 +34 очень
душно
1008.6 1006.8 +25.1
03 16.07 Ю 4 14 км мгла 9/1 600 м
[Cu hum Ac trans Ci sp]
+31.0 +25.1 71 +45 +50 опасность
перегрева
1008.7 1006.9
06 16.07 Ю 5 15 км мгла 9/3 660 м
[Cu med, cong Ac trans Ci sp]
+33.9 +25.4 61 +48 +53 опасность
перегрева
1006.3 1004.5
09 16.07 ЮЗ 4 16 км мгла 9/4 600 м
[Cu med, cong Ac trans Ci sp]
+34.3 +25.1 59 +48 +50 опасность
перегрева
1005.0 1003.2
12 16.07 ЮВ 2 11 км мгла 9/1 750 м
[Sc Ac trans Ci fib]
+29.0 +26.2 85 +44 +44 опасность
перегрева
1006.5 1004.7 +35.1
15 16.07 Ю 1 11 км мгла 8/1 720 м
[Sc Ac trans Ci fib]
+27.6 +26.3 93 +42 +42 опасность
перегрева
1008.5 1006.7
18 16.07 Ю 1 11 км мгла 8/1 720 м
[Sc Ac trans Ci fib]
+26.6 +25.6 94 +39 +39 очень
душно
1007.7 1005.9
21 16.07 ЮЗ 2 8000 м зарница 8/1 500 м
[Cb cap Ac trans Ci sp]
+25.9 +23.9 89 +36 +36 очень
душно
1006.6 1004.8
00 17.07 Ю 2 9000 м мгла 9/1 750 м
[Sc Ac lent Ci sp]
+25.5 +23.7 90 +35 +35 очень
душно
1007.3 1005.5 +25.2
03 17.07 Ю 4 11 км мгла 9/3 600 м
[Cu hum Ac trans Ci sp]
+29.5 +25.1 77 +43 +47 опасность
перегрева
1007.3 1005.5
06 17.07 ЮЗ 5 12 км мгла 9/4 500 м
[Cb cap Ac trans Ci fib]
+33.7 +25.1 61 +48 +51 опасность
перегрева
1005.5 1003.7
09 17.07 Ю 3 14 км мгла 9/4 500 м
[Cb calv Ac trans Ci sp]
+33.0 +25.8 66 +48 +50 опасность
перегрева
1003.8 1002.1
12 17.07 ЮВ 1 14 км мгла 9/3 720 м
[Sc Ac trans Ci sp]
+29.0 +26.9 88 +45 +45 опасность
перегрева
1005.4 1003.7 +34.5
15 17.07 Ю 2 8000 м зарница 9/4 500 м
[Cb cap Ac trans Ci sp]
+27.8 +26.6 93 +43 +43 опасность
перегрева
1007.2 1005.4
18 17.07 Ю 3 8000 м мгла 9/3 720 м
[Sc Ac trans Ci sp]
+27.0 +24.7 87 +38 +38 очень
душно
1006.7 1004.9
21 17.07 Ю 2 8000 м мгла 9/3 720 м
[Sc Ac trans Ci sp]
+26.3 +24.5 90 +37 +37 очень
душно
1006.5 1004.7
00 18.07 ЮВ 1 9000 м мгла 9/3 270 м
[Sc Ac trans Cs]
+26.2 +24.5 90 +37 +37 очень
душно
1007.3 1005.5 +25.5
03 18.07 Ю 5 8000 м мгла 9/3 570 м
[Cu hum Ac trans Ci fib]
+29.0 +25.4 81 +43 +46 опасность
перегрева
1007.8 1006.0
06 18.07 Ю 5 14 км мгла 9/4 570 м
[Cu med, cong Ac trans Ci sp]
+31.4 +26.1 74 +47 +51 опасность
перегрева
1006.2 1004.4
09 18.07 Ю 5 16 км мгла 9/3 570 м
[Cu med, cong Ac trans Ci sp]
+31.4 +25.3 70 +45 +47 опасность
перегрева
1005.2 1003.4
12 18.07 Ю 2 15 км мгла 9/3 720 м
[Sc Ac trans Ci sp]
+28.6 +24.6 79 +41 +41 опасность
перегрева
1006.8 1005.0 +32.4
15 18.07 ЮВ 1 12 км мгла 9/3 720 м
[Sc Ac trans Ci sp]
+26.9 +24.7 88 +38 +38 очень
душно
1008.2 1006.4
18 18.07 Ю 2 10 км мгла 9/3 720 м
[Sc Ac lent Ci sp]
+26.4 +24.3 88 +37 +37 очень
душно
1007.7 1005.9
21 18.07 Ю 2 9000 м мгла 8/1 720 м
[Sc Ac lent Ci sp]
+25.6 +24.0 91 +35 +35 очень
душно
1007.6 1005.8
00 19.07 штиль 0 9000 м мгла 8/1 600 м
[Cu hum Ac trans Ci fib]
+25.8 +24.2 91 +36 +37 очень
душно
1009.2 1007.4 +24.8
03 19.07 Ю 3 14 км мгла 8/4 600 м
[Cu hum Ac trans Ci sp]
+30.6 +25.5 74 +45 +50 опасность
перегрева
1009.7 1007.9
06 19.07 Ю 6 15 км мгла 8/4 570 м
[Cu med, cong Ac trans Ci sp]
+34.5 +25.5 60 +49 +53 опасность
перегрева
1007.4 1005.6
09 19.07 Ю 4 16 км мгла 8/4 570 м
[Cu med, cong Ac trans Ci sp]
+34.3 +24.6 57 +47 +49 опасность
перегрева
1005.6 1003.8
12 19.07 ЮВ 2 9000 м мгла 9/3 720 м
[Sc Ac trans Ci sp]
+28.6 +26.3 87 +43 +43 опасность
перегрева
1006.9 1005.1 +35.2
15 19.07 ЮВ 1 9000 м мгла 9/3 720 м
[Sc Ac trans Ci sp]
+27.3 +25.9 92 +41 +41 опасность
перегрева
1009.3 1007.5
18 19.07 ЮВ 1 9000 м мгла 9/3 720 м
[Sc Ac trans Ci sp]
+26.3 +25.0 93 +38 +38 очень
душно
1009.1 1007.3
21 19.07 Ю 2 9000 м мгла 9/3 720 м
[Sc Ac trans Ci fib]
+25.2 +24.3 95 +35 +35 очень
душно
1008.6 1006.8
00 20.07 ЮЗ 2 9000 м мгла 8/1 660 м
[Cu hum Ac trans Ci sp]
+25.3 +23.4 89 +34 +35 очень
душно
1009.9 1008.1 +24.1
03 20.07 Ю 4 13 км мгла 8/3 600 м
[Cu med, cong Ac trans Ci sp]
+31.1 +25.5 72 +45 +50 опасность
перегрева
1010.5 1008.7
06 20.07 Ю 4 16 км мгла 9/4 600 м
[Cu med, cong Ac trans Ci sp]
+34.1 +25.0 59 +48 +52 опасность
перегрева
1008.4 1006.6
09 20.07 Ю 3 18 км мгла 9/3 600 м
[Cu med, cong Ac trans Ci sp]
+34.9 +25.5 58 +49 +51 опасность
перегрева
1006.5 1004.7

 

Местоположение метеостанции Kuantan (Малайзия): широта 3.78 долгота 103.21 высота над уровнем моря 16 м.

В архиве по умолчанию представлена погода в Kuantan за последнюю неделю. Архивные данные за месяц целиком и за предыдущие месяцы, начиная с января 2011 года, Вы можете получить, выбрав интересующий диапазон дат из раскрывающегося списка и нажав кнопку "Ввод!".


*Определитесь, кто Вы:
робот инопланетянин человек

Внимание! Время в таблицах - всемирное. Для получения местного времени необходимо прибавить поправку, которая в Kuantan равна 7 ч.

Смотрите также архив погоды в соседних городах и на ближайших метеорологических станциях:

Погода в Kuala Trengganu (Малайзия) (178 км)
Погода в Mersing (Малайзия) (198 км)
Погода в Kuala Lumpur (Малайзия) (198 км)
Погода в Malacca (Малайзия) (199 км)
Погода в Kuala Lumpur Int Airport (Малайзия) (205 км)
Погода в Cameron Highlands (Малайзия) (218 км)
Погода в Johore Bharu / Senai (Малайзия) (245 км)
Погода в Ipoh (Малайзия) (250 км)
Погода в Singapore (Сингапур) (281 км)
Погода в Sitiawan (Малайзия) (283 км)

Пояснения к столбцам:

Ветер - указаны скорость ветра в м/с - средняя за 10 мин, порывы в срок и между сроками (в фигурных скобках) и направление, откуда дует ветер: С - северный, СВ - северо-восточный, В - восточный, ЮВ - юго-восточный, Ю - южный, ЮЗ - юго-западный, З - западный, СЗ - северо-западный.
Видимость - горизонтальная дальность видимости в метрах или километрах. При видимости от 1 до 10 км при отсутствии осадков обычно наблюдается дымка, при ухудшении видимости до 1 км и менее - туман. В сухую погоду видимость может ухудшаться дымом, пылью или мглою.
Явления - указаны атмосферные явления, наблюдавшиеся в срок или в последний час перед сроком; фигурными скобками обозначены явления, наблюдавшиеся между сроками (за 1-3 часа до срока); квадратными скобками обозначены град или гололедные отложения с указанием их диаметра в мм.
Облачность - указаны через наклонную черту общая и нижняя облачность в баллах и высота нижней границы облаков в метрах; квадратными скобками обозначены формы облаков: Ci - перистые, Cs - перисто-слоистые, Cc - перисто-кучевые, Ac - высококучевые, As - высокослоистые, Sc - слоисто-кучевые, Ns - слоисто-дождевые, Cu - кучевые, Cb - кучево-дождевые. Подробнее классификацию облаков см. в Атласе облаков (PDF).
T - Температура воздуха - температура, измеренная на высоте 2 м над землей.
Td - Температура точки росы - температура, при понижении до которой содержащийся в воздухе водяной пар достигнет насыщения.
f - Относительная влажность воздуха - влажноcть воздуха, измеренная на высоте 2 м над землей.
Te - Эффективная температура - температура, которую ощущает одетый по сезону человек в тени. Характеристика душности погоды. При расчете учитывается влияние влажности воздуха и скорости ветра на теплоощущения человека.
Tes - Эффективная температура на солнце - температура, которую ощущает человек, с поправкой на солнечный нагрев. Характеристика знойности погоды. Зависит от высоты солнца над горизонтом, облачности и скорости ветра. Ночью, в пасмурную погоду, а также при ветре 12 м/с и более поправка равна нулю.
P - Атмосферное давление - приведенное к уровню моря атмосферное давление.
Po - Атмосферное давление - измеренное на уровне метеостанции атмосферное давление.
Tmin - Минимальная температура - минимум температуры воздуха на высоте 2 м над землей.
Tmax - Максимальная температура - максимум температуры воздуха на высоте 2 м над землей.
R - Количество осадков - Количество выпавших осадков за период времени, мм. При наведении курсора мыши на число - период времени, за который выпало указанное количество осадков.
R24 - Количество осадков - Количество выпавших осадков за 24 часа, мм.
S - Снежный покров - Высота снежного покрова, см. При наведении курсора мыши на число - состояние снежного покрова и степень покрытия местности в баллах.